K1MIZ Weather Reports


Display with metric or nautical units.
time (UTC)temp
F
wind
direction
speed
MPH
gust
MPH
rain 1hr
in
rain 24hr
in
rain mn
in
humidity
%
barometer
mb
20260504214023 71 273 3.0 19.0 0.00 0.00 0.00 34 1006.7
20260504213522 71 285 9.0 19.0 0.00 0.00 0.00 33 1006.8
20260504213039 71 144 7.0 18.0 0.00 0.00 0.00 34 1006.7
20260504212520 71 196 4.0 18.0 0.00 0.00 0.00 33 1006.8
20260504212019 72 245 6.0 19.0 0.00 0.00 0.00 33 1006.8
20260504211547 72 246 7.0 19.0 0.00 0.00 0.00 33 1006.7
20260504211021 72 245 7.0 17.0 0.00 0.00 0.00 35 1006.8
20260504210520 71 196 3.0 14.0 0.00 0.00 0.00 35 1006.7
20260504210051 71 263 6.0 14.0 0.00 0.00 0.00 34 1006.8
20260504205520 70 281 4.0 14.0 0.00 0.00 0.00 35 1006.8
20260504205019 71 237 5.0 14.0 0.00 0.00 0.00 34 1006.7
20260504204539 71 297 3.0 14.0 0.00 0.00 0.00 36 1006.7
20260504204020 70 234 6.0 14.0 0.00 0.00 0.00 34 1006.7
20260504203521 70 307 7.0 13.0 0.00 0.00 0.00 33 1006.8
20260504203035 70 184 4.0 13.0 0.00 0.00 0.00 34 1006.8
20260504202520 71 163 4.0 14.0 0.00 0.00 0.00 34 1006.8
20260504202021 72 284 6.0 14.0 0.00 0.00 0.00 34 1006.8
20260504201533 72 263 6.0 14.0 0.00 0.00 0.00 33 1006.7
20260504201021 73 265 4.0 11.0 0.00 0.00 0.00 32 1006.7
20260504200520 73 287 2.0 13.0 0.00 0.00 0.00 34 1006.7
20260504200039 72 263 6.0 15.0 0.00 0.00 0.00 34 1006.7
20260504195519 71 128 5.0 17.0 0.00 0.00 0.00 35 1006.6
20260504195019 71 251 9.0 18.0 0.00 0.00 0.00 32 1006.8
20260504194557 71 290 5.0 18.0 0.00 0.00 0.00 35 1006.7
20260504194020 72 279 10.0 23.0 0.00 0.00 0.00 32 1006.7
20260504193520 71 279 10.0 23.0 0.00 0.00 0.00 32 1006.7
20260504193035 72 271 8.0 23.0 0.00 0.00 0.00 32 1006.9
20260504192520 72 321 9.0 18.0 0.00 0.00 0.00 31 1006.8
20260504192022 72 256 7.0 18.0 0.00 0.00 0.00 35 1006.7
20260504191545 71 319 6.0 19.0 0.00 0.00 0.00 35 1006.9
20260504191021 71 241 6.0 19.0 0.00 0.00 0.00 32 1006.8
20260504190523 71 271 8.0 19.0 0.00 0.00 0.00 34 1006.8
20260504190055 71 267 4.0 19.0 0.00 0.00 0.00 32 1006.9
20260504185523 71 193 7.0 15.0 0.00 0.00 0.00 33 1006.8
20260504185022 71 281 6.0 18.0 0.00 0.00 0.00 34 1006.9
20260504184541 70 244 5.0 19.0 0.00 0.00 0.00 36 1007.0
20260504184020 70 255 11.0 19.0 0.00 0.00 0.00 31 1006.9
20260504183523 70 323 7.0 18.0 0.00 0.00 0.00 32 1006.9
20260504183038 71 288 9.0 18.0 0.00 0.00 0.00 33 1007.3
20260504182519 71 185 3.0 22.0 0.00 0.00 0.00 35 1007.1
20260504182019 70 337 7.0 22.0 0.00 0.00 0.00 33 1007.2
20260504181546 70 301 10.0 21.0 0.00 0.00 0.00 32 1007.1
20260504181020 70 136 6.0 18.0 0.00 0.00 0.00 33 1007.0
20260504180522 70 292 5.0 18.0 0.00 0.00 0.00 33 1007.2
20260504180052 70 184 4.0 18.0 0.00 0.00 0.00 34 1007.3
20260504175520 70 261 5.0 12.0 0.00 0.00 0.00 34 1007.1
20260504175020 69 270 3.0 21.0 0.00 0.00 0.00 37 1007.2
20260504174542 69 121 7.0 21.0 0.00 0.00 0.00 36 1007.3
20260504174020 69 307 8.0 21.0 0.00 0.00 0.00 34 1007.2
20260504173522 69 98 5.0 16.0 0.00 0.00 0.00 38 1007.2
20260504173044 69 313 6.0 16.0 0.00 0.00 0.00 34 1007.4
20260504172519 68 290 5.0 20.0 0.00 0.00 0.00 36 1007.5
20260504172020 68 108 6.0 20.0 0.00 0.00 0.00 38 1007.4
20260504171539 68 212 7.0 20.0 0.00 0.00 0.00 35 1007.5
20260504171020 68 151 8.0 18.0 0.00 0.00 0.00 36 1007.6
20260504170521 68 217 6.0 21.0 0.00 0.00 0.00 35 1007.5
20260504151020 64 159 3.0 12.0 0.00 0.01 0.00 43 1008.7
20260504150520 64 140 5.0 13.0 0.00 0.01 0.00 41 1008.6
20260504141020 61 302 4.0 19.0 0.00 0.01 0.00 48 1009.4
20260504140520 60 277 7.0 23.0 0.00 0.01 0.00 45 1009.5
20260504130520 58 152 4.0 12.0 0.00 0.01 0.00 52 1009.9
20260504110523 48 217 1.0 9.0 0.00 0.01 0.00 63 1010.5
20260504100519 44 0 0.0 4.0 0.00 0.01 0.00 67 1010.6
20260504081537 41 0 0.0 0.0 0.00 0.01 0.00 75 1010.5
20260504081022 41 0 0.0 1.0 0.00 0.01 0.00 74 1010.4
20260504080519 41 0 0.0 1.0 0.00 0.01 0.00 74 1010.5
20260504050519 33 0 0.0 2.0 0.00 0.01 0.00 86 1010.6
20260504050105 32 290 0.0 2.0 0.00 0.01 0.00 87 1010.6
20260504045518 32 0 0.0 2.0 0.00 0.01 0.00 86 1010.6
20260504045019 32 0 0.0 2.0 0.00 0.01 0.00 86 1010.6
20260504044539 32 277 0.0 2.0 0.00 0.01 0.00 85 1010.6
20260504044020 32 0 0.0 1.0 0.00 0.01 0.00 85 1010.6
20260504043522 32 0 0.0 1.0 0.00 0.01 0.00 85 1010.5
20260504043036 32 0 0.0 2.0 0.00 0.01 0.00 85 1010.6
20260504042520 32 0 0.0 2.0 0.00 0.01 0.00 85 1010.6
20260504042019 32 0 0.0 1.0 0.00 0.01 0.00 84 1010.6
20260504041537 32 0 0.0 1.0 0.00 0.01 0.00 84 1010.5
20260504041019 32 0 0.0 1.0 0.00 0.01 0.00 84 1010.4
20260504040519 32 0 0.0 1.0 0.00 0.01 0.00 84 1010.4
20260504040040 32 0 0.0 1.0 0.00 0.01 0.00 84 1010.4
20260504035519 32 0 0.0 1.0 0.00 0.01 0.01 84 1010.4
20260504035023 33 0 0.0 1.0 0.00 0.01 0.01 83 1010.4
20260504034546 33 0 0.0 1.0 0.00 0.01 0.01 83 1010.4
20260504034025 33 0 0.0 1.0 0.00 0.01 0.01 83 1010.3
20260504033530 33 0 0.0 1.0 0.00 0.01 0.01 83 1010.3
20260504033044 33 0 0.0 1.0 0.00 0.01 0.01 83 1010.3
20260504032519 33 0 0.0 1.0 0.00 0.01 0.01 83 1010.3
20260504032020 33 0 0.0 1.0 0.00 0.01 0.01 83 1010.3
20260504031556 33 0 0.0 1.0 0.00 0.01 0.01 82 1010.2
20260504031020 33 0 0.0 1.0 0.00 0.01 0.01 82 1010.2
20260504030519 34 277 0.0 1.0 0.00 0.01 0.01 82 1010.3
20260504030041 34 0 0.0 1.0 0.00 0.01 0.01 81 1010.3
20260504025525 34 0 0.0 1.0 0.00 0.01 0.01 81 1010.3
20260504025020 34 0 0.0 1.0 0.00 0.01 0.01 81 1010.3
20260504024540 34 0 0.0 1.0 0.00 0.01 0.01 80 1010.3
20260504024022 34 0 0.0 1.0 0.00 0.01 0.01 80 1010.1
20260504023519 35 0 0.0 1.0 0.00 0.01 0.01 80 1010.1
20260504023034 35 0 0.0 1.0 0.00 0.01 0.01 79 1010.2
20260504022521 35 0 0.0 1.0 0.00 0.01 0.01 79 1010.2
20260504022020 35 0 0.0 1.0 0.00 0.01 0.01 78 1010.2
20260504021541 36 0 0.0 1.0 0.00 0.01 0.01 78 1010.1
20260504021019 36 0 0.0 1.0 0.00 0.01 0.01 77 1010.2
20260504020519 36 0 0.0 1.0 0.00 0.01 0.01 77 1010.1
20260504020041 36 0 0.0 1.0 0.00 0.01 0.01 76 1010.1
20260504015519 37 0 0.0 1.0 0.00 0.01 0.01 75 1010.0
20260504015020 37 0 0.0 0.0 0.00 0.01 0.01 75 1010.0
20260504014539 37 0 0.0 1.0 0.00 0.01 0.01 74 1010.0
20260504014020 38 0 0.0 1.0 0.00 0.01 0.01 74 1009.9
20260504013519 38 277 0.0 1.0 0.00 0.01 0.01 73 1009.9
20260504013037 38 0 0.0 1.0 0.00 0.01 0.01 73 1009.9
20260504012522 39 0 0.0 1.0 0.00 0.01 0.01 72 1009.9
20260504012019 39 0 0.0 0.0 0.00 0.01 0.01 70 1009.8
20260504011536 40 0 0.0 1.0 0.00 0.01 0.01 69 1009.8
20260504011019 40 0 0.0 2.0 0.00 0.01 0.01 68 1009.8
20260504010521 41 277 0.0 2.0 0.00 0.01 0.01 67 1009.7
20260504010042 41 277 0.0 1.0 0.00 0.01 0.01 65 1009.6
20260504005519 42 0 0.0 1.0 0.00 0.01 0.01 62 1009.6
20260504005020 43 0 0.0 1.0 0.00 0.01 0.01 61 1009.5
20260504004534 44 0 0.0 1.0 0.00 0.01 0.01 59 1009.4
20260504004019 45 0 0.0 0.0 0.00 0.01 0.01 57 1009.4
20260504003519 46 0 0.0 1.0 0.00 0.01 0.01 55 1009.3
20260504003045 46 0 0.0 2.0 0.00 0.01 0.01 54 1009.3
20260504002520 47 0 0.0 3.0 0.00 0.01 0.01 53 1009.3
20260504002020 47 277 1.0 3.0 0.00 0.01 0.01 52 1009.3
20260504001552 47 277 0.0 4.0 0.00 0.01 0.01 51 1009.2
20260504001020 47 277 1.0 4.0 0.00 0.01 0.01 50 1009.2
20260504000520 48 263 1.0 5.0 0.00 0.01 0.01 50 1009.0
20260504000038 48 269 2.0 6.0 0.00 0.01 0.01 49 1009.0
20260503235519 48 284 2.0 6.0 0.00 0.01 0.01 49 1009.0
20260503235019 49 257 2.0 6.0 0.00 0.01 0.01 48 1008.9
20260503234536 49 269 1.0 6.0 0.00 0.01 0.01 48 1008.9
20260503234020 49 261 2.0 11.0 0.00 0.01 0.01 47 1008.8
20260503233521 49 278 4.0 11.0 0.00 0.01 0.01 47 1008.8
20260503233042 49 277 4.0 14.0 0.00 0.01 0.01 46 1008.8
20260503232519 50 281 4.0 14.0 0.00 0.01 0.01 46 1008.7
20260503232019 50 260 4.0 13.0 0.00 0.01 0.01 46 1008.7
20260503231547 50 306 6.0 13.0 0.00 0.01 0.01 45 1008.7
20260503231019 50 259 5.0 12.0 0.00 0.01 0.01 45 1008.6
20260503230520 51 250 5.0 12.0 0.00 0.01 0.01 45 1008.6
20260503230039 51 277 4.0 11.0 0.00 0.01 0.01 45 1008.6
20260503225519 51 335 3.0 10.0 0.00 0.02 0.01 44 1008.4
20260503225022 51 293 4.0 16.0 0.00 0.02 0.01 44 1008.3
20260503224539 51 286 6.0 16.0 0.00 0.02 0.01 44 1008.3
20260503224020 51 250 5.0 15.0 0.00 0.02 0.01 44 1008.3
20260503223519 50 257 6.0 12.0 0.00 0.02 0.01 44 1008.3
20260503223039 50 271 6.0 12.0 0.00 0.02 0.01 44 1008.1
20260503222521 51 273 3.0 15.0 0.00 0.02 0.01 44 1008.1
20260503222020 51 304 6.0 15.0 0.00 0.02 0.01 43 1008.1
20260503221536 51 304 5.0 17.0 0.00 0.02 0.01 43 1007.9
20260503221019 51 300 6.0 17.0 0.00 0.02 0.01 43 1007.8
20260503220516 51 304 6.0 15.0 0.00 0.02 0.01 43 1007.8
20260503220038 51 270 8.0 15.0 0.00 0.02 0.01 43 1007.8
20260503215515 51 329 6.0 16.0 0.00 0.03 0.01 42 1007.7
20260503215016 51 242 6.0 16.0 0.00 0.03 0.01 42 1007.7
20260503214540 51 302 7.0 23.0 0.00 0.03 0.01 43 1007.6